N7YET Weather Reports


time (UTC)temp
F
wind
direction
speed
knots
gust
knots
rain 1hr
in
rain 24hr
in
rain mn
in
humidity
%
barometer
mb
20260502225038 72 277 2.6 10.4 0.00 0.00 0.00 7 1231.9
20260502224037 72 275 7.8 13.0 0.00 0.00 0.00 6 1231.9
20260502223037 72 281 6.1 11.3 0.00 0.00 0.00 8 1231.9
20260502222036 72 282 7.0 11.3 0.00 0.00 0.00 7 1231.9
20260502221036 72 262 6.1 11.3 0.00 0.00 0.00 7 1231.9
20260502220035 73 240 4.3 13.0 0.00 0.00 0.00 7 1231.9
20260502215034 72 274 6.1 13.0 0.00 0.00 0.00 7 1231.9
20260502214034 73 235 6.1 13.0 0.00 0.00 0.00 7 1231.9
20260502213033 72 279 6.1 11.3 0.00 0.00 0.00 7 1231.9
20260502212032 71 253 4.3 9.6 0.00 0.00 0.00 8 1231.9
20260502211032 71 275 2.6 7.0 0.00 0.00 0.00 9 1231.9
20260502210031 72 216 5.2 10.4 0.00 0.00 0.00 9 1231.9
20260502205030 72 206 6.1 11.3 0.00 0.00 0.00 10 1231.9
20260502204030 71 219 6.1 13.0 0.00 0.00 0.00 9 1231.9
20260502203029 72 211 6.1 13.0 0.00 0.00 0.00 10 1231.9
20260502202029 71 330 1.7 6.1 0.00 0.00 0.00 11 1231.9
20260502201029 71 263 7.0 13.0 0.00 0.00 0.00 10 1231.9
20260502200027 70 331 2.6 5.2 0.00 0.00 0.00 12 1231.9
20260502195027 69 298 2.6 8.7 0.00 0.00 0.00 12 1231.9
20260502194026 69 240 6.1 8.7 0.00 0.00 0.00 11 1231.9
20260502193025 69 234 3.5 10.4 0.00 0.00 0.00 11 1231.9
20260502192025 69 257 4.3 7.0 0.00 0.00 0.00 12 1231.9
20260502191024 68 237 6.1 8.7 0.00 0.00 0.00 11 1231.9
20260502190024 68 206 7.0 11.3 0.00 0.00 0.00 16 1231.9
20260502185023 67 263 2.6 7.0 0.00 0.00 0.00 16 1231.9
20260502184022 66 270 4.3 8.7 0.00 0.00 0.00 18 1231.9
20260502183021 65 245 5.2 8.7 0.00 0.00 0.00 20 1231.9
20260502182021 66 195 4.3 8.7 0.00 0.00 0.00 20 1231.9
20260502181020 65 271 3.5 8.7 0.00 0.00 0.00 19 1231.9
20260502164014 58 335 1.7 5.2 0.00 0.00 0.00 27 1231.9
20260502163014 58 291 2.6 5.2 0.00 0.00 0.00 28 1231.9
20260502162013 57 278 0.9 5.2 0.00 0.00 0.00 30 1231.9
20260502161013 55 227 0.9 3.5 0.00 0.00 0.00 30 1231.9
20260502152010 52 227 0.0 3.5 0.00 0.00 0.00 33 1231.9
20260502151009 51 211 2.6 4.3 0.00 0.00 0.00 34 1231.9
20260502122959 35 0 0.0 0.0 0.00 0.00 0.00 35 1231.9
20260502121958 36 0 0.0 0.0 0.00 0.00 0.00 35 1231.9
20260502120957 36 0 0.0 0.0 0.00 0.00 0.00 35 1231.9
20260502114956 37 156 2.6 3.5 0.00 0.00 0.00 35 1231.9
20260502113956 37 153 1.7 4.3 0.00 0.00 0.00 35 1231.9
20260502112955 37 158 4.3 5.2 0.00 0.00 0.00 35 1231.9
20260502111955 37 165 3.5 4.3 0.00 0.00 0.00 35 1231.9
20260502110954 37 186 4.3 5.2 0.00 0.00 0.00 35 1231.9
20260502105953 37 190 4.3 6.1 0.00 0.00 0.00 36 1231.9
20260502104953 36 174 1.7 6.1 0.00 0.00 0.00 37 1231.9
20260502103952 36 0 0.0 0.0 0.00 0.00 0.00 36 1231.9
20260502102951 36 179 0.0 3.5 0.00 0.00 0.00 36 1231.9
20260502101951 36 196 1.7 3.5 0.00 0.00 0.00 36 1231.9
20260502100950 35 0 0.0 0.0 0.00 0.00 0.00 35 1231.9
20260502090947 39 183 0.0 2.6 0.00 0.00 0.00 33 1231.9
20260502070941 43 208 5.2 7.0 0.00 0.00 0.00 33 1231.9
20260502065940 44 169 7.8 10.4 0.00 0.00 0.00 33 1231.9
20260502064939 44 162 7.8 11.3 0.00 0.00 0.00 33 1231.9
20260502063939 44 161 7.8 9.6 0.00 0.00 0.00 33 1231.9
20260502062938 45 166 8.7 9.6 0.00 0.00 0.00 33 1231.9
20260502061938 45 163 8.7 10.4 0.00 0.00 0.00 33 1231.9
20260502060937 45 163 8.7 11.3 0.00 0.00 0.00 33 1231.9
20260502055937 45 163 8.7 11.3 0.00 0.00 0.00 33 1231.9
20260502054936 45 161 8.7 11.3 0.00 0.00 0.00 33 1231.9
20260502053936 45 156 8.7 10.4 0.00 0.00 0.00 33 1231.9
20260502052935 45 159 8.7 12.2 0.00 0.00 0.00 32 1231.9
20260502051934 45 161 9.6 13.0 0.00 0.00 0.00 32 1231.9
20260502050934 46 159 9.6 13.0 0.00 0.00 0.00 31 1231.9
20260502045933 46 157 9.6 11.3 0.00 0.00 0.00 31 1231.9
20260502044933 45 163 8.7 11.3 0.00 0.00 0.00 30 1231.9
20260502043932 46 166 9.6 12.2 0.00 0.00 0.00 28 1231.9
20260502042931 48 163 9.6 11.3 0.00 0.00 0.00 24 1231.9
20260502041931 50 163 7.8 10.4 0.00 0.00 0.00 20 1231.9
20260502040930 50 165 7.0 8.7 0.00 0.00 0.00 18 1231.9
20260502035930 51 163 6.1 8.7 0.00 0.00 0.00 18 1231.9
20260502034929 52 148 7.8 9.6 0.00 0.00 0.00 17 1231.9
20260502033928 52 161 7.0 8.7 0.00 0.00 0.00 16 1231.9
20260502032928 54 153 6.1 7.8 0.00 0.00 0.00 16 1231.9
20260502031927 55 143 6.1 7.0 0.00 0.00 0.00 15 1231.9
20260502030926 55 141 7.0 7.0 0.00 0.00 0.00 15 1231.9
20260502025926 56 141 6.1 7.8 0.00 0.00 0.00 16 1231.9
20260502024925 56 139 7.0 7.8 0.00 0.00 0.00 16 1231.9
20260502023925 57 140 7.0 7.0 0.00 0.00 0.00 16 1231.9
20260502022924 59 138 7.0 8.7 0.00 0.00 0.00 16 1231.9
20260502021923 61 138 6.1 7.0 0.00 0.00 0.00 14 1231.9
20260502020923 63 143 4.3 6.1 0.00 0.00 0.00 12 1231.9
20260502015922 64 133 3.5 4.3 0.00 0.00 0.00 11 1231.9
20260502014922 65 123 2.6 4.3 0.00 0.00 0.00 9 1231.9
20260502013921 66 117 1.7 3.5 0.00 0.00 0.00 9 1231.9
20260502012920 66 160 0.9 3.5 0.00 0.00 0.00 9 1231.9
20260502011919 67 160 2.6 4.3 0.00 0.00 0.00 9 1231.9
20260502010919 67 150 2.6 4.3 0.00 0.00 0.00 9 1231.9
20260502005918 67 146 2.6 7.0 0.00 0.00 0.00 9 1231.9
20260502004918 67 164 2.6 6.1 0.00 0.00 0.00 9 1231.9
20260502003917 67 83 0.9 4.3 0.00 0.00 0.00 9 1231.9
20260502002917 67 333 0.0 3.5 0.00 0.00 0.00 9 1231.9
20260502001916 67 300 1.7 5.2 0.00 0.00 0.00 9 1231.9
20260502000915 68 270 0.9 3.5 0.00 0.00 0.00 9 1231.9
20260501235914 68 153 0.9 5.2 0.00 0.00 0.00 9 1231.9
20260501234914 68 111 1.7 5.2 0.00 0.00 0.00 9 1231.9
20260501233913 68 125 3.5 6.1 0.00 0.00 0.00 9 1231.9
20260501232913 69 104 2.6 6.1 0.00 0.00 0.00 9 1231.9
20260501231912 69 126 1.7 4.3 0.00 0.00 0.00 9 1231.9
20260501230911 68 130 5.2 8.7 0.00 0.00 0.00 10 1231.9
20260501225911 67 117 3.5 5.2 0.00 0.00 0.00 10 1231.9